| time (UTC) | temp F | wind direction | speed MPH | gust MPH | rain 1hr in | rain 24hr in | rain mn in | humidity % | barometer mb |
| 20260502210217 | 55 | 233 | 4.0 | 6.0 | 0.00 | 0.00 | 0.00 | 60 | 1018.0 |
| 20260502205710 | 55 | 234 | 4.0 | 6.0 | 0.00 | 0.00 | 0.00 | 60 | 1018.0 |
| 20260502205217 | 55 | 226 | 4.0 | 6.0 | 0.00 | 0.00 | 0.00 | 60 | 1018.1 |
| 20260502204717 | 55 | 225 | 4.0 | 5.0 | 0.00 | 0.00 | 0.00 | 60 | 1018.1 |
| 20260502204210 | 55 | 237 | 4.0 | 5.0 | 0.00 | 0.00 | 0.00 | 60 | 1018.1 |
| 20260502203714 | 55 | 238 | 5.0 | 5.0 | 0.00 | 0.00 | 0.00 | 60 | 1018.1 |
| 20260502202213 | 55 | 240 | 3.0 | 5.0 | 0.00 | 0.00 | 0.00 | 59 | 1018.2 |
| 20260502201712 | 56 | 253 | 3.0 | 5.0 | 0.00 | 0.00 | 0.00 | 59 | 1018.2 |
| 20260502201219 | 56 | 244 | 3.0 | 4.0 | 0.00 | 0.00 | 0.00 | 59 | 1018.2 |
| 20260502200705 | 56 | 252 | 3.0 | 7.0 | 0.00 | 0.00 | 0.00 | 58 | 1018.3 |
| 20260502195715 | 56 | 250 | 4.0 | 7.0 | 0.00 | 0.00 | 0.00 | 58 | 1018.3 |
| 20260502195207 | 56 | 248 | 4.0 | 7.0 | 0.00 | 0.00 | 0.00 | 58 | 1018.3 |
| 20260502194718 | 57 | 248 | 5.0 | 7.0 | 0.00 | 0.00 | 0.00 | 57 | 1018.3 |
| 20260502194209 | 57 | 252 | 5.0 | 7.0 | 0.00 | 0.00 | 0.00 | 56 | 1018.3 |
| 20260502193715 | 58 | 259 | 5.0 | 7.0 | 0.00 | 0.00 | 0.00 | 55 | 1018.3 |
| 20260502193234 | 59 | 258 | 5.0 | 7.0 | 0.00 | 0.00 | 0.00 | 54 | 1018.3 |
| 20260502192709 | 59 | 259 | 4.0 | 6.0 | 0.00 | 0.00 | 0.00 | 54 | 1018.3 |
| 20260502192215 | 60 | 248 | 4.0 | 6.0 | 0.00 | 0.00 | 0.00 | 53 | 1018.3 |
| 20260502191707 | 60 | 263 | 3.0 | 4.0 | 0.00 | 0.00 | 0.00 | 52 | 1018.3 |
| 20260502190729 | 61 | 259 | 3.0 | 6.0 | 0.00 | 0.00 | 0.00 | 50 | 1018.3 |
| 20260502190210 | 62 | 257 | 3.0 | 4.0 | 0.00 | 0.00 | 0.00 | 49 | 1018.2 |
| 20260502185706 | 62 | 246 | 2.0 | 2.0 | 0.00 | 0.00 | 0.00 | 49 | 1018.2 |
| 20260502185217 | 63 | 195 | 1.0 | 2.0 | 0.00 | 0.00 | 0.00 | 48 | 1018.2 |
| 20260502184705 | 64 | 117 | 1.0 | 2.0 | 0.00 | 0.00 | 0.00 | 46 | 1018.2 |
| 20260502184215 | 65 | 117 | 1.0 | 1.0 | 0.00 | 0.00 | 0.00 | 45 | 1018.1 |
| 20260502183707 | 65 | 117 | 1.0 | 2.0 | 0.00 | 0.00 | 0.00 | 45 | 1018.1 |
| 20260502182709 | 67 | 117 | 1.0 | 2.0 | 0.00 | 0.00 | 0.00 | 41 | 1018.0 |
| 20260502182212 | 67 | 117 | 1.0 | 3.0 | 0.00 | 0.00 | 0.00 | 42 | 1018.0 |
| 20260502181714 | 68 | 117 | 1.0 | 3.0 | 0.00 | 0.00 | 0.00 | 39 | 1017.9 |
| 20260502181207 | 69 | 108 | 1.0 | 3.0 | 0.00 | 0.00 | 0.00 | 39 | 1017.8 |
| 20260502180709 | 69 | 108 | 2.0 | 4.0 | 0.00 | 0.00 | 0.00 | 38 | 1017.8 |
| 20260502180210 | 70 | 111 | 2.0 | 4.0 | 0.00 | 0.00 | 0.00 | 37 | 1017.8 |
| 20260502170205 | 74 | 90 | 3.0 | 7.0 | 0.00 | 0.00 | 0.00 | 33 | 1017.8 |
| 20260502164214 | 74 | 63 | 4.0 | 9.0 | 0.00 | 0.00 | 0.00 | 33 | 1017.9 |
| 20260502163708 | 74 | 69 | 5.0 | 9.0 | 0.00 | 0.00 | 0.00 | 33 | 1017.9 |
| 20260502163218 | 74 | 103 | 5.0 | 10.0 | 0.00 | 0.00 | 0.00 | 32 | 1017.9 |
| 20260502162209 | 74 | 96 | 6.0 | 12.0 | 0.00 | 0.00 | 0.00 | 31 | 1018.0 |
| 20260502161709 | 74 | 39 | 6.0 | 13.0 | 0.00 | 0.00 | 0.00 | 31 | 1018.1 |
| 20260502161210 | 74 | 86 | 7.0 | 13.0 | 0.00 | 0.00 | 0.00 | 30 | 1018.1 |
| 20260502160719 | 74 | 84 | 5.0 | 13.0 | 0.00 | 0.00 | 0.00 | 31 | 1018.2 |
| 20260502152205 | 75 | 88 | 4.0 | 9.0 | 0.00 | 0.00 | 0.00 | 31 | 1018.6 |
| 20260502151215 | 75 | 61 | 3.0 | 9.0 | 0.00 | 0.00 | 0.00 | 31 | 1018.7 |
| 20260502150711 | 75 | 5 | 3.0 | 9.0 | 0.00 | 0.00 | 0.00 | 31 | 1018.7 |
| 20260502150208 | 75 | 343 | 4.0 | 9.0 | 0.00 | 0.00 | 0.00 | 29 | 1018.7 |
| 20260502130208 | 75 | 65 | 5.0 | 12.0 | 0.00 | 0.00 | 0.00 | 31 | 1020.1 |
| 20260502123715 | 74 | 55 | 6.0 | 12.0 | 0.00 | 0.00 | 0.00 | 31 | 1020.3 |
| 20260502123215 | 74 | 50 | 5.0 | 10.0 | 0.00 | 0.00 | 0.00 | 31 | 1020.4 |
| 20260502122713 | 74 | 43 | 4.0 | 10.0 | 0.00 | 0.00 | 0.00 | 31 | 1020.4 |
| 20260502122218 | 74 | 0 | 5.0 | 11.0 | 0.00 | 0.00 | 0.00 | 31 | 1020.6 |
| 20260502121717 | 74 | 28 | 6.0 | 11.0 | 0.00 | 0.00 | 0.00 | 31 | 1020.6 |
| 20260502121210 | 74 | 54 | 5.0 | 12.0 | 0.00 | 0.00 | 0.00 | 31 | 1020.7 |
| 20260502120712 | 74 | 32 | 4.0 | 12.0 | 0.00 | 0.00 | 0.00 | 32 | 1020.7 |
| 20260502120215 | 74 | 51 | 5.0 | 11.0 | 0.00 | 0.00 | 0.00 | 32 | 1020.8 |
| 20260502115718 | 73 | 311 | 5.0 | 11.0 | 0.00 | 0.00 | 0.00 | 33 | 1020.8 |
| 20260502115217 | 73 | 22 | 5.0 | 11.0 | 0.00 | 0.00 | 0.00 | 34 | 1021.0 |
| 20260502113715 | 73 | 86 | 6.0 | 13.0 | 0.00 | 0.00 | 0.00 | 35 | 1021.1 |
| 20260502113217 | 73 | 57 | 6.0 | 13.0 | 0.00 | 0.00 | 0.00 | 35 | 1021.1 |
| 20260502112718 | 72 | 86 | 6.0 | 11.0 | 0.00 | 0.00 | 0.00 | 34 | 1021.2 |
| 20260502112206 | 72 | 55 | 4.0 | 11.0 | 0.00 | 0.00 | 0.00 | 33 | 1021.2 |
| 20260502111716 | 72 | 74 | 4.0 | 12.0 | 0.00 | 0.00 | 0.00 | 33 | 1021.4 |
| 20260502110709 | 72 | 71 | 7.0 | 13.0 | 0.00 | 0.00 | 0.00 | 34 | 1021.5 |
| 20260502110217 | 72 | 40 | 5.0 | 13.0 | 0.00 | 0.00 | 0.00 | 35 | 1021.5 |
| 20260502105710 | 72 | 58 | 3.0 | 13.0 | 0.00 | 0.00 | 0.00 | 36 | 1021.6 |
| 20260502105213 | 72 | 43 | 5.0 | 13.0 | 0.00 | 0.00 | 0.00 | 35 | 1021.7 |
| 20260502104719 | 72 | 64 | 5.0 | 13.0 | 0.00 | 0.00 | 0.00 | 35 | 1021.8 |
| 20260502104212 | 72 | 16 | 5.0 | 19.0 | 0.00 | 0.00 | 0.00 | 36 | 1021.8 |
| 20260502103707 | 71 | 57 | 6.0 | 19.0 | 0.00 | 0.00 | 0.00 | 37 | 1021.9 |
| 20260502103216 | 71 | 9 | 5.0 | 19.0 | 0.00 | 0.00 | 0.00 | 37 | 1021.9 |
| 20260502102706 | 71 | 78 | 4.0 | 15.0 | 0.00 | 0.00 | 0.00 | 38 | 1021.9 |
| 20260502102216 | 71 | 71 | 5.0 | 15.0 | 0.00 | 0.00 | 0.00 | 37 | 1022.0 |
| 20260502101710 | 71 | 91 | 6.0 | 15.0 | 0.00 | 0.00 | 0.00 | 38 | 1022.1 |
| 20260502100206 | 70 | 21 | 6.0 | 13.0 | 0.00 | 0.00 | 0.00 | 39 | 1022.2 |
| 20260502091211 | 69 | 57 | 6.0 | 11.0 | 0.00 | 0.00 | 0.00 | 43 | 1022.6 |
| 20260502090708 | 69 | 70 | 6.0 | 11.0 | 0.00 | 0.00 | 0.00 | 42 | 1022.7 |
| 20260502090217 | 69 | 44 | 6.0 | 11.0 | 0.00 | 0.00 | 0.00 | 43 | 1022.8 |
| 20260502071211 | 63 | 59 | 2.0 | 7.0 | 0.00 | 0.00 | 0.00 | 52 | 1023.1 |
| 20260502070712 | 62 | 36 | 1.0 | 7.0 | 0.00 | 0.00 | 0.00 | 53 | 1023.1 |
| 20260502070209 | 61 | 64 | 1.0 | 3.0 | 0.00 | 0.00 | 0.00 | 57 | 1023.2 |
| 20260502065731 | 60 | 252 | 2.0 | 3.0 | 0.00 | 0.00 | 0.00 | 58 | 1023.2 |
| 20260502065206 | 59 | 235 | 2.0 | 4.0 | 0.00 | 0.00 | 0.00 | 59 | 1023.2 |
| 20260502064712 | 58 | 261 | 2.0 | 4.0 | 0.00 | 0.00 | 0.00 | 60 | 1023.2 |
| 20260502064213 | 58 | 223 | 2.0 | 5.0 | 0.00 | 0.00 | 0.00 | 60 | 1023.1 |
| 20260502063708 | 57 | 229 | 2.0 | 6.0 | 0.00 | 0.00 | 0.00 | 61 | 1023.2 |
| 20260502063216 | 57 | 196 | 3.0 | 7.0 | 0.00 | 0.00 | 0.00 | 62 | 1023.2 |
| 20260502062707 | 56 | 221 | 4.0 | 9.0 | 0.00 | 0.00 | 0.00 | 63 | 1023.2 |
| 20260502061712 | 54 | 247 | 5.0 | 8.0 | 0.00 | 0.00 | 0.00 | 66 | 1023.2 |
| 20260502061218 | 53 | 219 | 4.0 | 8.0 | 0.00 | 0.00 | 0.00 | 67 | 1023.2 |
| 20260502060712 | 52 | 232 | 2.0 | 4.0 | 0.00 | 0.00 | 0.00 | 69 | 1023.3 |
| 20260502060220 | 51 | 171 | 1.0 | 3.0 | 0.00 | 0.00 | 0.00 | 70 | 1023.3 |
| 20260502054709 | 50 | 180 | 1.0 | 4.0 | 0.00 | 0.00 | 0.00 | 71 | 1023.2 |
| 20260502054205 | 49 | 171 | 1.0 | 4.0 | 0.00 | 0.00 | 0.00 | 72 | 1023.2 |
| 20260502052707 | 48 | 218 | 1.0 | 2.0 | 0.00 | 0.00 | 0.00 | 73 | 1023.3 |
| 20260502052219 | 48 | 218 | 1.0 | 2.0 | 0.00 | 0.00 | 0.00 | 74 | 1023.3 |
| 20260502051733 | 48 | 218 | 1.0 | 2.0 | 0.00 | 0.00 | 0.00 | 74 | 1023.3 |
| 20260502051211 | 47 | 219 | 1.0 | 2.0 | 0.00 | 0.00 | 0.00 | 74 | 1023.2 |
| 20260502050742 | 47 | 219 | 1.0 | 2.0 | 0.00 | 0.00 | 0.00 | 74 | 1023.2 |
| 20260502050215 | 47 | 219 | 1.0 | 2.0 | 0.00 | 0.00 | 0.00 | 74 | 1023.3 |
| 20260502045707 | 47 | 227 | 1.0 | 2.0 | 0.00 | 0.00 | 0.00 | 74 | 1023.2 |
| 20260502045210 | 47 | 227 | 1.0 | 2.0 | 0.00 | 0.00 | 0.00 | 74 | 1023.2 |
| 20260502044715 | 47 | 227 | 1.0 | 1.0 | 0.00 | 0.00 | 0.00 | 73 | 1023.1 |
| 20260502044217 | 47 | 227 | 0.0 | 2.0 | 0.00 | 0.00 | 0.00 | 73 | 1023.1 |
| 20260502042718 | 47 | 246 | 3.0 | 4.0 | 0.00 | 0.00 | 0.00 | 72 | 1023.0 |
| 20260502042211 | 47 | 239 | 3.0 | 6.0 | 0.00 | 0.00 | 0.00 | 72 | 1023.0 |
| 20260502041211 | 47 | 244 | 4.0 | 8.0 | 0.00 | 0.00 | 0.00 | 72 | 1023.0 |
| 20260502040708 | 47 | 250 | 4.0 | 9.0 | 0.00 | 0.00 | 0.00 | 72 | 1023.0 |
| 20260502035715 | 47 | 239 | 7.0 | 9.0 | 0.00 | 0.00 | 0.00 | 71 | 1022.9 |
| 20260502035212 | 47 | 235 | 6.0 | 10.0 | 0.00 | 0.00 | 0.00 | 71 | 1022.9 |
| 20260502034716 | 47 | 247 | 5.0 | 10.0 | 0.00 | 0.00 | 0.00 | 71 | 1022.8 |
| 20260502033714 | 47 | 233 | 6.0 | 9.0 | 0.00 | 0.00 | 0.00 | 71 | 1022.8 |
| 20260502033219 | 48 | 227 | 5.0 | 9.0 | 0.00 | 0.00 | 0.00 | 70 | 1022.8 |
| 20260502032716 | 48 | 233 | 6.0 | 10.0 | 0.00 | 0.00 | 0.00 | 70 | 1022.8 |
| 20260502032205 | 48 | 224 | 6.0 | 10.0 | 0.00 | 0.00 | 0.00 | 70 | 1022.8 |
| 20260502031738 | 48 | 248 | 6.0 | 10.0 | 0.00 | 0.00 | 0.00 | 70 | 1022.8 |
| 20260502031218 | 48 | 236 | 6.0 | 12.0 | 0.00 | 0.00 | 0.00 | 70 | 1022.8 |
| 20260502030711 | 48 | 238 | 6.0 | 12.0 | 0.00 | 0.00 | 0.00 | 70 | 1022.8 |
| 20260502030220 | 48 | 225 | 7.0 | 12.0 | 0.00 | 0.00 | 0.00 | 70 | 1022.8 |
| 20260502025212 | 48 | 250 | 7.0 | 12.0 | 0.00 | 0.00 | 0.00 | 70 | 1022.8 |
| 20260502024704 | 48 | 233 | 7.0 | 11.0 | 0.00 | 0.00 | 0.00 | 70 | 1022.8 |
| 20260502024217 | 48 | 242 | 8.0 | 12.0 | 0.00 | 0.00 | 0.00 | 70 | 1022.8 |
| 20260502023217 | 48 | 244 | 8.0 | 13.0 | 0.00 | 0.00 | 0.00 | 70 | 1022.9 |
| 20260502022719 | 48 | 244 | 9.0 | 13.0 | 0.00 | 0.00 | 0.00 | 70 | 1022.9 |
| 20260502022216 | 48 | 243 | 10.0 | 13.0 | 0.00 | 0.00 | 0.00 | 71 | 1022.9 |
| 20260502021209 | 48 | 248 | 9.0 | 12.0 | 0.00 | 0.00 | 0.00 | 72 | 1022.9 |
| 20260502020709 | 47 | 249 | 8.0 | 11.0 | 0.00 | 0.00 | 0.00 | 73 | 1022.9 |
| 20260502020212 | 47 | 243 | 7.0 | 11.0 | 0.00 | 0.00 | 0.00 | 74 | 1022.9 |
| 20260502015717 | 46 | 223 | 6.0 | 8.0 | 0.00 | 0.00 | 0.00 | 74 | 1023.0 |
| 20260502015211 | 46 | 242 | 5.0 | 9.0 | 0.00 | 0.00 | 0.00 | 74 | 1023.0 |
| 20260502014713 | 46 | 248 | 6.0 | 9.0 | 0.00 | 0.00 | 0.00 | 74 | 1022.9 |
| 20260502014212 | 46 | 248 | 7.0 | 9.0 | 0.00 | 0.00 | 0.00 | 74 | 1023.0 |
| 20260502013717 | 46 | 250 | 5.0 | 9.0 | 0.00 | 0.00 | 0.00 | 73 | 1023.0 |
| 20260502013213 | 46 | 255 | 4.0 | 7.0 | 0.00 | 0.00 | 0.00 | 73 | 1023.0 |
| 20260502012708 | 47 | 250 | 4.0 | 7.0 | 0.00 | 0.00 | 0.00 | 72 | 1023.1 |
| 20260502012213 | 47 | 271 | 4.0 | 5.0 | 0.00 | 0.00 | 0.00 | 72 | 1023.1 |
| 20260502011715 | 47 | 249 | 3.0 | 5.0 | 0.00 | 0.00 | 0.00 | 71 | 1023.1 |
| 20260502011205 | 47 | 246 | 3.0 | 5.0 | 0.00 | 0.00 | 0.00 | 71 | 1023.2 |
| 20260502010221 | 48 | 250 | 3.0 | 5.0 | 0.00 | 0.00 | 0.00 | 70 | 1023.2 |
| 20260502005710 | 48 | 250 | 3.0 | 5.0 | 0.00 | 0.00 | 0.00 | 69 | 1023.3 |
| 20260502004718 | 48 | 250 | 3.0 | 5.0 | 0.00 | 0.00 | 0.00 | 69 | 1023.3 |
| 20260502004216 | 49 | 248 | 3.0 | 5.0 | 0.00 | 0.00 | 0.00 | 68 | 1023.3 |
| 20260502003708 | 49 | 257 | 3.0 | 5.0 | 0.00 | 0.00 | 0.00 | 68 | 1023.3 |
| 20260502003214 | 49 | 235 | 2.0 | 3.0 | 0.00 | 0.00 | 0.00 | 67 | 1023.3 |
| 20260502002206 | 49 | 223 | 2.0 | 3.0 | 0.00 | 0.00 | 0.00 | 67 | 1023.4 |
| 20260502001218 | 50 | 228 | 1.0 | 4.0 | 0.00 | 0.00 | 0.00 | 66 | 1023.4 |
| 20260502000248 | 50 | 258 | 2.0 | 6.0 | 0.00 | 0.00 | 0.00 | 66 | 1023.4 |
| 20260501235711 | 50 | 286 | 3.0 | 7.0 | 0.00 | 0.00 | 0.00 | 66 | 1023.5 |
| 20260501235219 | 50 | 260 | 4.0 | 7.0 | 0.00 | 0.00 | 0.00 | 66 | 1023.4 |
| 20260501233712 | 51 | 250 | 4.0 | 8.0 | 0.00 | 0.00 | 0.00 | 66 | 1023.4 |
| 20260501233215 | 51 | 234 | 4.0 | 8.0 | 0.00 | 0.00 | 0.00 | 65 | 1023.4 |
| 20260501232715 | 51 | 226 | 5.0 | 8.0 | 0.00 | 0.00 | 0.00 | 65 | 1023.5 |
| 20260501232213 | 51 | 235 | 5.0 | 8.0 | 0.00 | 0.00 | 0.00 | 65 | 1023.5 |
| 20260501231709 | 51 | 242 | 4.0 | 7.0 | 0.00 | 0.00 | 0.00 | 64 | 1023.5 |
| 20260501231215 | 52 | 245 | 3.0 | 4.0 | 0.00 | 0.00 | 0.00 | 64 | 1023.5 |
| 20260501225720 | 52 | 230 | 3.0 | 4.0 | 0.00 | 0.00 | 0.00 | 63 | 1023.6 |
| 20260501225226 | 53 | 238 | 2.0 | 4.0 | 0.00 | 0.00 | 0.00 | 62 | 1023.6 |
| 20260501224706 | 53 | 249 | 2.0 | 5.0 | 0.00 | 0.00 | 0.00 | 62 | 1023.6 |
| 20260501223717 | 53 | 238 | 3.0 | 8.0 | 0.00 | 0.00 | 0.00 | 62 | 1023.7 |
| 20260501223211 | 53 | 249 | 3.0 | 8.0 | 0.00 | 0.00 | 0.00 | 62 | 1023.7 |
| 20260501222219 | 53 | 213 | 4.0 | 6.0 | 0.00 | 0.00 | 0.00 | 63 | 1023.6 |
| 20260501221718 | 53 | 247 | 2.0 | 6.0 | 0.00 | 0.00 | 0.00 | 63 | 1023.7 |
| 20260501221206 | 53 | 219 | 3.0 | 6.0 | 0.00 | 0.00 | 0.00 | 63 | 1023.7 |
| 20260501220706 | 53 | 202 | 3.0 | 5.0 | 0.00 | 0.00 | 0.00 | 62 | 1023.7 |
| 20260501220216 | 53 | 247 | 3.0 | 5.0 | 0.00 | 0.00 | 0.00 | 62 | 1023.7 |
| 20260501215708 | 53 | 215 | 3.0 | 5.0 | 0.00 | 0.00 | 0.00 | 62 | 1023.8 |
| 20260501215215 | 53 | 237 | 3.0 | 5.0 | 0.00 | 0.00 | 0.00 | 63 | 1023.8 |
| 20260501214208 | 53 | 233 | 2.0 | 5.0 | 0.00 | 0.00 | 0.00 | 62 | 1023.9 |
| 20260501213218 | 53 | 219 | 3.0 | 5.0 | 0.00 | 0.00 | 0.00 | 62 | 1023.7 |
| 20260501212719 | 53 | 227 | 3.0 | 7.0 | 0.00 | 0.00 | 0.00 | 62 | 1023.8 |
| 20260501212214 | 53 | 215 | 3.0 | 7.0 | 0.00 | 0.00 | 0.00 | 62 | 1023.7 |